Regional Weather Roundup
Issued by NWS

Home | Current Version | Previous Version | Graphics & Text | Print | Product List | Glossary On
Versions: 1 2 3 4 5 6 7 8 9 10 11 12 13 14 15 16 17 18 19 20 21 22 23 24 25 26 27 28 29 30 31 32 33 34 35 36 37 38 39 40 41 42 43 44 45 46 47 48 49 50
000
ASUS43 KMKX 031600
RWRWI

WISCONSIN REGIONAL WEATHER ROUNDUP
NATIONAL WEATHER SERVICE MILWAUKEE/SULLIVAN WI
1100 AM CDT MON AUG 03 2015

NOTE: "FAIR" INDICATES FEW OR NO CLOUDS BELOW 12,000 FEET WITH NO
SIGNIFICANT WEATHER AND/OR OBSTRUCTIONS TO VISIBILITY.

WIZ001-002-006>008-014>016-023>028-031700-
NORTHWEST WISCONSIN

CITY           SKY/WX    TMP DP  RH WIND       PRES   REMARKS
SUPERIOR ARPT  MOSUNNY   69  55  59 NW13G22   29.83S
ASHLAND        PTSUNNY   70  53  54 NW10G22   29.82R
HAYWARD        MOSUNNY   68  50  52 VRB5      29.85R
SIREN          MOSUNNY   68  51  53 NW16      29.88S
CUMBERLAND     SUNNY     66  50  55 NW14      29.87S
RICE LAKE      SUNNY     69  51  52 NW12G20   29.88S
CHETEK         SUNNY     69  52  54 NW8G20    29.86S
LADYSMITH      MOSUNNY   68  51  54 W17       29.86S
EAU CLAIRE     NOT AVBL
MENOMONIE      SUNNY     73  47  39 W16G22    29.88S
NEW RICHMOND   SUNNY     71  50  47 NW13G23   29.90R
OSCEOLA        SUNNY     71  51  49 NW13G20   29.92R
$$

WIZ003>005-009-010-017-018-031700-
NORTH CENTRAL WISCONSIN

CITY           SKY/WX    TMP DP  RH WIND       PRES   REMARKS
MANITOWISH WTR PTSUNNY   64  51  63 NW12G17   29.81R
ARBOR VITAE    CLOUDY    64  52  63 W14G22    29.81R
WOODRUFF       CLOUDY    64  52  63 W14G22    29.81R
RHINELANDER    CLOUDY    67  49  52 W16       29.82R
EAGLE RIVER    PTSUNNY   65  47  50 W14G22    29.79S
LAND O LAKES   CLOUDY    66  49  53 W14G20    29.80R
PHILLIPS       SUNNY     65  51  61 NW9G17    29.82S
TOMAHAWK       MOSUNNY   66  50  55 W8        29.83S
MEDFORD        SUNNY     66  50  55 NW10G18   29.84F
MERRILL        NOT AVBL
$$

WIZ029-030-035-036-043>047-031700-
CENTRAL WISCONSIN

CITY           SKY/WX    TMP DP  RH WIND       PRES   REMARKS
WAUSAU         MOSUNNY   72  44  36 NW10G24   29.81F
MOSINEE        NOT AVBL
MARSHFIELD     SUNNY     72  47  40 W20G26    29.85S
STEVENS POINT  PTSUNNY   68  46  44 NW10G20   29.84S
WAUPACA        SUNNY     74  44  34 W13G22    29.83S
WAUTOMA        NOT AVBL
WISC RAPIDS    SUNNY     74  45  35 W15G23    29.87R
CAMP DOUGLAS   NOT AVBL
$$

WIZ011>013-019>022-031-037>040-048>050-031700-
NORTHEAST WISCONSIN

CITY           SKY/WX    TMP DP  RH WIND       PRES   REMARKS
ANTIGO         MOSUNNY   67  50  53 NW17G23   29.83R
SHAWANO        SUNNY     72  54  53 W9G17     29.80S
OCONTO         MOSUNNY   72  53  51 W8        29.78S
STURGEON BAY   PTSUNNY   70  52  52 SW8       29.81S
GREEN BAY      SUNNY     72  57  59 W12G17    29.80S
MANITOWOC      NOT AVBL
APPLETON       MOSUNNY   72  48  43 NW14      29.82S
CLINTONVILLE   SUNNY     70  48  46 NW9G16    29.81S
OSHKOSH        SUNNY     72  48  42 W14       29.83R
$$

WIZ032>034-041-042-053>061-031700-
SOUTHWEST WISCONSIN

CITY           SKY/WX    TMP DP  RH WIND       PRES   REMARKS
LA CROSSE      SUNNY     77  52  41 NW10G20   29.88S
SPARTA         SUNNY     74  46  36 W9G17     29.88S
VIROQUA        SUNNY     72  51  47 W9        29.91S
BOSCOBEL       SUNNY     78  49  35 NW9       29.91R
PRAIRIE DU CHI SUNNY     75  44  33 W7        29.90S
PLATTEVILLE    SUNNY     73  52  47 W9        29.92R
$$

WIZ056-057-062-063-064-067-068-031700-
SOUTH CENTRAL WISCONSIN

CITY           SKY/WX    TMP DP  RH WIND       PRES   REMARKS
REEDSBURG      SUNNY     74  47  37 NW10G21   29.88R
BARABOO/DELLS  SUNNY     74  40  29 W15G24    29.87S
LONE ROCK      NOT AVBL
MINERAL POINT  SUNNY     73  45  35 NW9       29.91S
MADISON        MOSUNNY   75  47  36 NW13G22   29.87S
MIDDLETON      SUNNY     76  41  28 NW14      29.89R
WATERTOWN      SUNNY     73  52  46 W13G20    29.86R
MONROE         SUNNY     73  45  35 NW10G16   29.90R
JANESVILLE     SUNNY     79  43  27 NW14G20   29.88R
$$

WIZ051-052-058>065-066-070>072-031700-
SOUTHEAST WISCONSIN

CITY           SKY/WX    TMP DP  RH WIND       PRES   REMARKS
MILWAUKEE      MOSUNNY   76  45  33 NW16      29.84R
WAUKESHA       SUNNY     73  43  33 NW14G23   29.86S
MILWAUKEE/TIMM SUNNY     73  43  33 W14G22    29.85R
RACINE         SUNNY     76  49  38 W15G21    29.86R
BURLINGTON     SUNNY     74  46  36 NW15      29.86S
KENOSHA        SUNNY     75  54  47 W14G20    29.86R
FOND DU LAC    SUNNY     73  50  44 NW16      29.84R
SHEBOYGAN      SUNNY     72  55  55 W12G21    29.82R
WEST BEND      SUNNY     70  48  46 W14       29.84S
JUNEAU         SUNNY     70  51  49 W10G16    29.86S
$$

LSZ147-162-031700-
LAKE SUPERIOR

STATION/POSITION TIME  TEMP    WIND        PRES    WAVE
                       AIR SEA DIR/SP/G            HT/PER
                 (UTC) (F)     (DEG/KT/KT) (MB)    (FT/S)
W MID LAKE BUOY  1450   57 55  270/ 14/ 17 1007.0R   2/ 4
DEVILS ISLAND    1500   59     260/ 11/ 14 1008.6R
PORT WING        1500   62     270/ 12/ 15 1009.8R
SAXON HARBOR     1540   65                 1009.1R
$$

LMZ867-665-643>646-031700-
LAKE MICHIGAN

STATION/POSITION TIME  TEMP    WIND        PRES    WAVE
                       AIR SEA DIR/SP/G            HT/PER
                 (UTC) (F)     (DEG/KT/KT) (MB)    (FT/S)
CHAMBERS ISLAND  1500   69     250/  3/  7 1008.1S
S GREEN BAY BUOY 1500   64 67  220/ 10/ 12 1010.1F
N MID LAKE BUOY  1450   64 68  280/ 12/ 14 1007.1R   2/ 6
NORTHPORT PIER   1500   67     310/  6/  9 1007.8S
SISTER BAY       1503   69     320/  9/ 11   N/A
ALGOMA LAKESHORE 1412          330/  7/  9   N/A
KEWAUNEE LAKESHO 1500   69     300/  6/  9 1008.2S
SHEBOYGAN LAKESH 1500   69     270/  9/ 11 1009.5R
PORT WASHINGTON  1540   74     280/  6/ 16 1010.5S
ATWATER BUOY     1500   70 65  300/ 10/ 16 1011.5S
MILWAUKEE LAKESH 1500   73     300/ 10/ 18   N/A
KENOSHA   LAKESH 1500   72     300/ 12/ 16 1010.2S
$$

TC  - TEMPERATURE IN CELSIUS
VSB - VISIBILITY IN STATUTE MILES
WCI - WIND CHILL INDEX
HX  - HEAT INDEX




USA.gov is the U.S. government's official web portal to all federal, state and local government web resources and services.